sat.trackr.live / text

‹ back to catalog

INMARSAT 6-F1

NORAD 50319 · 2021-128A

PAYLOAD ACTIVE UNKNOWN

§ Identity

Operator
Country
IM
Launch date
2021-12-22
Launch site
TANSC
Launch vehicle
Mass (kg)
RCS (m²)

Purposes: comms

External: N2YO · Heavens-Above · Gunter

§ Orbital elements

Epoch: 2026-05-25T02:25:52.864320Z

Period
1,436.07 min
Inclination
0.0156°
Eccentricity
0.0000042
Mean motion
1.00273345 rev/d
Perigee alt
35,786.0 km
Apogee alt
35,786.3 km
Semi-major
42,164.3 km
B*
0.0000e+0
RAAN
291.3693°
Arg perigee
207.3681°
Mean anomaly
224.1899°
Rev number
1,602

§ Raw data

INMARSAT 6-F11 50319U 21128A   26145.10130630 -.00000175  00000+0  00000+0 0  99962 50319   0.0156 291.3693 0000042 207.3681 224.1899  1.00273345 16027

JSON: /api/v1/satellites/50319 · /tle

For live sub-satellite position, see the globe view (requires WebGL).

§ Visibility from observer

Set your observer location to see the next 7 days of passes ≥ 10°. The values pass through the URL so the page stays shareable.

No JS? Fill the form by hand. The geolocation button needs JavaScript.